| time (UTC) | temp C | wind direction | speed KPH | gust KPH | rain 1hr cm | rain 24hr cm | rain mn cm | humidity % | barometer mb |
| 20260505180056 | 17 | 173 | 1.6 | 6.4 | 0.00 | 1.42 | 1.17 | 80 | 1011.2 |
| 20260505174545 | 17 | 168 | 3.2 | 11.3 | 0.00 | 1.42 | 1.17 | 78 | 1011.2 |
| 20260505173041 | 17 | 166 | 6.4 | 11.3 | 0.00 | 1.42 | 1.17 | 75 | 1011.2 |
| 20260505171543 | 18 | 153 | 4.8 | 12.9 | 0.00 | 1.42 | 1.17 | 72 | 1011.1 |
| 20260505170040 | 18 | 119 | 4.8 | 12.9 | 0.00 | 1.42 | 1.17 | 71 | 1011.1 |
| 20260505164540 | 18 | 156 | 6.4 | 14.5 | 0.00 | 1.42 | 1.17 | 75 | 1011.3 |
| 20260505163038 | 18 | 142 | 6.4 | 14.5 | 0.00 | 1.42 | 1.17 | 75 | 1011.2 |
| 20260505161539 | 19 | 150 | 4.8 | 14.5 | 0.00 | 1.42 | 1.17 | 68 | 1011.3 |
| 20260505153040 | 20 | 180 | 6.4 | 14.5 | 0.00 | 1.45 | 1.17 | 66 | 1011.5 |
| 20260505151532 | 20 | 159 | 9.7 | 19.3 | 0.00 | 1.45 | 1.17 | 63 | 1011.4 |
| 20260505124519 | 19 | 161 | 8.0 | 19.3 | 0.00 | 1.50 | 1.17 | 74 | 1012.2 |
| 20260505123023 | 19 | 105 | 8.0 | 16.1 | 0.00 | 1.50 | 1.17 | 75 | 1012.2 |
| 20260505121517 | 19 | 197 | 9.7 | 24.1 | 0.00 | 1.50 | 1.17 | 75 | 1012.1 |
| 20260505120015 | 19 | 201 | 11.3 | 22.5 | 0.00 | 1.50 | 1.17 | 74 | 1012.1 |
| 20260505114515 | 18 | 154 | 11.3 | 19.3 | 0.00 | 1.50 | 1.17 | 75 | 1012.2 |
| 20260505113015 | 18 | 157 | 8.0 | 22.5 | 0.00 | 1.50 | 1.17 | 74 | 1012.2 |
| 20260505111514 | 18 | 197 | 6.4 | 17.7 | 0.00 | 1.50 | 1.17 | 77 | 1012.2 |
| 20260505101506 | 18 | 139 | 9.7 | 17.7 | 0.00 | 1.50 | 1.17 | 78 | 1012.3 |
| 20260505100008 | 18 | 153 | 4.8 | 16.1 | 0.00 | 1.50 | 1.17 | 80 | 1012.3 |
| 20260505094504 | 17 | 153 | 4.8 | 17.7 | 0.00 | 1.52 | 1.17 | 83 | 1012.4 |
| 20260505093006 | 18 | 146 | 4.8 | 12.9 | 0.00 | 1.52 | 1.17 | 82 | 1012.4 |
| 20260505091502 | 18 | 121 | 8.0 | 16.1 | 0.00 | 1.52 | 1.17 | 81 | 1012.4 |
| 20260505090100 | 18 | 215 | 6.4 | 11.3 | 0.00 | 1.52 | 1.17 | 80 | 1012.1 |
| 20260505090002 | 18 | 146 | 6.4 | 11.3 | 0.00 | 1.52 | 1.17 | 80 | 1012.1 |
| 20260505084602 | 18 | 135 | 6.4 | 12.9 | 0.00 | 1.52 | 1.17 | 82 | 1012.0 |
| 20260505083105 | 18 | 109 | 6.4 | 14.5 | 0.00 | 1.52 | 1.17 | 82 | 1011.9 |
| 20260505081551 | 18 | 107 | 8.0 | 14.5 | 0.00 | 1.52 | 1.17 | 85 | 1011.9 |
| 20260505080049 | 17 | 86 | 1.6 | 6.4 | 0.00 | 1.52 | 1.17 | 88 | 1012.0 |
| 20260505074545 | 17 | 62 | 4.8 | 12.9 | 0.00 | 1.52 | 1.17 | 87 | 1012.0 |
| 20260505073048 | 17 | 23 | 4.8 | 12.9 | 0.00 | 1.52 | 1.17 | 89 | 1011.8 |
| 20260505071538 | 16 | 44 | 6.4 | 14.5 | 0.00 | 1.52 | 1.17 | 91 | 1011.8 |
| 20260505070035 | 15 | 50 | 9.7 | 16.1 | 0.00 | 1.52 | 1.17 | 91 | 1011.6 |
| 20260505064534 | 15 | 350 | 1.6 | 6.4 | 0.00 | 1.52 | 1.17 | 91 | 1011.7 |
| 20260505063029 | 15 | 55 | 1.6 | 3.2 | 0.00 | 1.52 | 1.17 | 92 | 1011.7 |
| 20260505061530 | 15 | 55 | 0.0 | 6.4 | 0.00 | 1.52 | 1.17 | 92 | 1011.8 |
| 20260505060129 | 15 | 55 | 1.6 | 8.0 | 0.00 | 1.52 | 1.17 | 92 | 1011.7 |
| 20260505054544 | 14 | 55 | 1.6 | 3.2 | 0.00 | 1.68 | 1.17 | 92 | 1011.6 |
| 20260505053126 | 14 | 55 | 0.0 | 8.0 | 0.00 | 1.68 | 1.17 | 92 | 1011.5 |
| 20260505051535 | 14 | 59 | 4.8 | 8.0 | 0.00 | 1.68 | 1.17 | 92 | 1011.3 |
| 20260505041518 | 14 | 43 | 3.2 | 16.1 | 0.00 | 1.73 | 1.17 | 92 | 1010.9 |
| 20260505040017 | 14 | 268 | 1.6 | 3.2 | 0.00 | 1.73 | 1.17 | 92 | 1011.2 |
| 20260505034525 | 14 | 325 | 3.2 | 8.0 | 0.00 | 1.73 | 1.17 | 91 | 1011.2 |
| 20260505033015 | 14 | 36 | 4.8 | 9.7 | 0.00 | 1.73 | 1.17 | 91 | 1011.0 |
| 20260505031514 | 14 | 213 | 3.2 | 16.1 | 0.00 | 1.73 | 1.17 | 92 | 1011.1 |
| 20260505030032 | 14 | 230 | 6.4 | 14.5 | 0.00 | 1.73 | 1.17 | 91 | 1011.2 |
| 20260505024516 | 14 | 96 | 1.6 | 17.7 | 0.00 | 1.73 | 1.17 | 92 | 1010.9 |
| 20260505023010 | 14 | 52 | 8.0 | 20.9 | 0.00 | 1.73 | 1.17 | 92 | 1010.9 |
| 20260505021509 | 13 | 21 | 8.0 | 24.1 | 0.00 | 1.73 | 1.17 | 92 | 1011.2 |
| 20260505020006 | 13 | 64 | 3.2 | 8.0 | 0.00 | 1.73 | 1.17 | 92 | 1011.4 |
| 20260505014510 | 13 | 78 | 6.4 | 14.5 | 0.00 | 1.73 | 1.17 | 92 | 1011.4 |
| 20260505013012 | 13 | 9 | 3.2 | 8.0 | 0.00 | 1.73 | 1.17 | 92 | 1011.5 |
| 20260505011502 | 13 | 59 | 9.7 | 19.3 | 0.00 | 1.73 | 1.17 | 92 | 1011.7 |
| 20260505010002 | 13 | 176 | 3.2 | 9.7 | 0.05 | 1.73 | 1.17 | 92 | 1012.1 |
| 20260505004504 | 13 | 9 | 4.8 | 19.3 | 0.10 | 1.73 | 1.17 | 92 | 1011.9 |
| 20260505003101 | 13 | 54 | 9.7 | 17.7 | 0.23 | 1.73 | 1.17 | 93 | 1012.0 |
| 20260505001558 | 13 | 45 | 1.6 | 6.4 | 0.53 | 1.73 | 1.17 | 93 | 1012.3 |
| 20260505000111 | 13 | 360 | 0.0 | 11.3 | 0.66 | 1.68 | 1.14 | 92 | 1012.5 |
| 20260504234556 | 13 | 49 | 9.7 | 25.7 | 0.76 | 1.63 | 1.09 | 92 | 1012.5 |
| 20260504233055 | 13 | 64 | 20.9 | 38.6 | 0.79 | 1.42 | 0.91 | 92 | 1012.3 |
| 20260504231620 | 13 | 61 | 14.5 | 40.2 | 0.58 | 1.17 | 0.64 | 92 | 1012.5 |
| 20260504230050 | 13 | 50 | 14.5 | 27.4 | 0.46 | 1.02 | 0.48 | 92 | 1012.7 |
| 20260504224546 | 13 | 73 | 16.1 | 37.0 | 0.43 | 0.86 | 0.33 | 91 | 1012.9 |
| 20260504223046 | 14 | 61 | 14.5 | 33.8 | 0.33 | 0.69 | 0.15 | 91 | 1012.8 |
| 20260504221601 | 14 | 68 | 24.1 | 43.5 | 0.25 | 0.61 | 0.05 | 90 | 1012.2 |
| 20260504220035 | 14 | 64 | 22.5 | 45.1 | 0.23 | 0.56 | 0.03 | 89 | 1012.6 |
| 20260504214536 | 14 | 84 | 25.7 | 38.6 | 0.10 | 0.43 | 0.43 | 88 | 1013.4 |
| 20260504213038 | 15 | 49 | 16.1 | 33.8 | 0.00 | 0.33 | 0.33 | 86 | 1013.7 |
| 20260504211533 | 14 | 35 | 19.3 | 29.0 | 0.00 | 0.33 | 0.33 | 88 | 1013.5 |
| 20260504210024 | 14 | 42 | 16.1 | 25.7 | 0.05 | 0.33 | 0.33 | 88 | 1013.8 |
| 20260504204522 | 14 | 79 | 9.7 | 20.9 | 0.08 | 0.33 | 0.33 | 89 | 1014.1 |
| 20260504203021 | 14 | 45 | 8.0 | 19.3 | 0.08 | 0.33 | 0.33 | 89 | 1014.2 |
| 20260504201519 | 14 | 48 | 9.7 | 22.5 | 0.08 | 0.33 | 0.33 | 88 | 1014.4 |
| 20260504200020 | 14 | 46 | 14.5 | 27.4 | 0.03 | 0.28 | 0.28 | 86 | 1014.6 |
| 20260504194521 | 14 | 46 | 12.9 | 22.5 | 0.00 | 0.25 | 0.25 | 84 | 1014.3 |
| 20260504193017 | 14 | 25 | 6.4 | 12.9 | 0.00 | 0.25 | 0.25 | 84 | 1014.4 |
| 20260504191512 | 15 | 73 | 11.3 | 20.9 | 0.00 | 0.25 | 0.25 | 82 | 1014.3 |
| 20260504190018 | 15 | 39 | 8.0 | 17.7 | 0.00 | 0.25 | 0.25 | 79 | 1014.4 |
| 20260504184526 | 15 | 52 | 12.9 | 25.7 | 0.00 | 0.25 | 0.25 | 79 | 1014.5 |
| 20260504183008 | 15 | 45 | 6.4 | 22.5 | 0.00 | 0.25 | 0.25 | 75 | 1014.4 |